When you browse on this site, cookies collect data to enhance your experience and personalize the content and advertising you see.
Visit our Privacy Policy to learn more. By continuing to use the site, you agree to this use of cookies and data.
  • In Denmark
  • List of Countries
  • For 7 days
  • Water Temperature
  • Satellite Maps
  • Weather Map
  • Weather Widgets
  • user-avatar
    Login

    Hourly Weather Hobart

    Today, 17 January, Thursday

    Time Temperature Precipitation Wind Pressure Humidity
    00:00 +13°C° 0.1 mm 1 mps 744 mmHg 94%
    01:00 +13°C° 0.1 mm 1 mps 744 mmHg 96%
    02:00 +13°C° 0.3 mm 1 mps 744 mmHg 95%
    03:00 +14°C° 0.3 mm 1 mps 743 mmHg 94%
    04:00 +14°C° 0 mm 1 mps 743 mmHg 93%
    05:00 +15°C° 0.2 mm 1 mps 743 mmHg 92%
    06:00 +15°C° 0.2 mm 1 mps 743 mmHg 91%
    07:00 +16°C° 0.2 mm 1 mps 743 mmHg 90%
    08:00 +20°C° 0 mm 1 mps 743 mmHg 79%
    09:00 +21°C° 0 mm 0 mps 743 mmHg 68%
    10:00 +24°C° 0 mm 0 mps 743 mmHg 57%
    11:00 +26°C° 0 mm 1 mps 742 mmHg 57%
    12:00 +26°C° 0 mm 2 mps 742 mmHg 56%
    13:00 +26°C° 0 mm 2 mps 742 mmHg 55%
    14:00 +25°C° 0 mm 2 mps 742 mmHg 60%
    15:00 +24°C° 0 mm 2 mps 741 mmHg 64%
    16:00 +23°C° 0 mm 2 mps 741 mmHg 69%
    17:00 +23°C° 0 mm 2 mps 741 mmHg 70%
    18:00 +21°C° 0 mm 2 mps 741 mmHg 72%
    19:00 +21°C° 0 mm 2 mps 741 mmHg 73%
    20:00 +20°C° 0 mm 1 mps 741 mmHg 81%
    21:00 +18°C° 0 mm 1 mps 741 mmHg 88%
    22:00 +14°C° 0 mm 0 mps 742 mmHg 96%
    23:00 +14°C° 0 mm 0 mps 741 mmHg 96%

    Tomorrow, 18 January, Friday

    Time Temperature Precipitation Wind Pressure Humidity
    00:00 +14°C° 0 mm 0 mps 741 mmHg 95%
    01:00 +14°C° 0 mm 0 mps 741 mmHg 95%
    02:00 +14°C° 0 mm 0 mps 741 mmHg 95%
    03:00 +14°C° 0 mm 0 mps 741 mmHg 95%
    04:00 +14°C° 0 mm 0 mps 741 mmHg 95%
    05:00 +15°C° 0 mm 0 mps 741 mmHg 90%
    06:00 +16°C° 0 mm 0 mps 742 mmHg 85%
    07:00 +17°C° 0 mm 0 mps 742 mmHg 80%
    08:00 +21°C° 0 mm 1 mps 742 mmHg 70%
    09:00 +23°C° 0 mm 1 mps 742 mmHg 60%
    10:00 +26°C° 0 mm 1 mps 742 mmHg 49%
    11:00 +27°C° 0 mm 2 mps 741 mmHg 45%
    12:00 +28°C° 0 mm 2 mps 741 mmHg 40%
    13:00 +30°C° 0 mm 3 mps 741 mmHg 35%
    14:00 +28°C° 0.1 mm 3 mps 740 mmHg 42%
    15:00 +26°C° 0.1 mm 3 mps 740 mmHg 49%
    16:00 +25°C° 0.1 mm 3 mps 740 mmHg 56%
    17:00 +22°C° 0.1 mm 3 mps 740 mmHg 58%
    18:00 +21°C° 0.1 mm 2 mps 740 mmHg 61%
    19:00 +20°C° 0.1 mm 2 mps 740 mmHg 63%
    20:00 +18°C° 0.4 mm 3 mps 741 mmHg 69%
    21:00 +17°C° 0.4 mm 4 mps 741 mmHg 75%
    22:00 +14°C° 0.4 mm 5 mps 742 mmHg 81%
    23:00 +13°C° 0 mm 5 mps 743 mmHg 81%

    Day after tomorrow, 19 January, Saturday

    Time Temperature Precipitation Wind Pressure Humidity
    00:00 +12°C° 0 mm 5 mps 743 mmHg 81%
    01:00 +10°C° 0 mm 5 mps 744 mmHg 81%
    02:00 +10°C° 0 mm 4 mps 744 mmHg 81%
    03:00 +10°C° 0 mm 4 mps 745 mmHg 81%
    04:00 +10°C° 0 mm 3 mps 746 mmHg 80%
    05:00 +11°C° 0 mm 3 mps 746 mmHg 74%
    06:00 +12°C° 0 mm 4 mps 747 mmHg 68%
    07:00 +13°C° 0 mm 4 mps 748 mmHg 62%
    08:00 +14°C° 0 mm 4 mps 748 mmHg 57%
    09:00 +17°C° 0 mm 3 mps 748 mmHg 53%
    10:00 +18°C° 0 mm 3 mps 749 mmHg 48%
    11:00 +20°C° 0 mm 4 mps 749 mmHg 44%
    12:00 +21°C° 0 mm 4 mps 749 mmHg 41%
    13:00 +22°C° 0 mm 4 mps 749 mmHg 37%
    14:00 +23°C° 0 mm 4 mps 749 mmHg 35%
    15:00 +24°C° 0 mm 3 mps 749 mmHg 33%
    16:00 +25°C° 0 mm 3 mps 749 mmHg 31%
    17:00 +22°C° 0 mm 3 mps 749 mmHg 36%
    18:00 +21°C° 0 mm 2 mps 749 mmHg 41%
    19:00 +21°C° 0 mm 1 mps 749 mmHg 46%
    20:00 +19°C° 0 mm 1 mps 750 mmHg 52%
    21:00 +17°C° 0 mm 2 mps 750 mmHg 58%
    22:00 +15°C° 0 mm 2 mps 750 mmHg 65%
    23:00 +15°C° 0 mm 2 mps 750 mmHg 69%

    20 January, Sunday

    Time Temperature Precipitation Wind Pressure Humidity
    00:00 +14°C° 0 mm 2 mps 750 mmHg 74%
    01:00 +13°C° 0 mm 2 mps 749 mmHg 79%
    02:00 +13°C° 0 mm 2 mps 749 mmHg 82%
    03:00 +13°C° 0 mm 2 mps 749 mmHg 84%
    04:00 +13°C° 0 mm 2 mps 749 mmHg 87%
    05:00 +15°C° 0 mm 2 mps 750 mmHg 80%
    06:00 +17°C° 0 mm 2 mps 750 mmHg 74%
    07:00 +18°C° 0 mm 2 mps 750 mmHg 67%
    08:00 +20°C° 0 mm 2 mps 750 mmHg 61%
    09:00 +23°C° 0 mm 2 mps 750 mmHg 55%
    10:00 +24°C° 0 mm 2 mps 751 mmHg 48%
    11:00 +26°C° 0 mm 2 mps 750 mmHg 45%
    12:00 +27°C° 0 mm 2 mps 750 mmHg 41%
    13:00 +28°C° 0 mm 2 mps 750 mmHg 38%
    14:00 +28°C° 0 mm 2 mps 750 mmHg 38%
    15:00 +28°C° 0 mm 2 mps 750 mmHg 39%
    16:00 +28°C° 0 mm 2 mps 749 mmHg 40%
    17:00 +26°C° 0 mm 2 mps 750 mmHg 46%
    18:00 +25°C° 0 mm 2 mps 750 mmHg 53%
    19:00 +23°C° 0 mm 1 mps 750 mmHg 59%
    20:00 +21°C° 0 mm 1 mps 750 mmHg 68%
    21:00 +19°C° 0 mm 1 mps 750 mmHg 78%
    22:00 +16°C° 0 mm 1 mps 750 mmHg 87%
    23:00 +15°C° 0 mm 1 mps 750 mmHg 90%

    21 January, Monday

    Time Temperature Precipitation Wind Pressure Humidity
    00:00 +15°C° 0 mm 1 mps 749 mmHg 92%
    01:00 +14°C° 0 mm 1 mps 749 mmHg 95%
    02:00 +14°C° 0 mm 1 mps 748 mmHg 95%
    03:00 +13°C° 0 mm 1 mps 748 mmHg 96%
    04:00 +13°C° 0 mm 1 mps 748 mmHg 96%
    05:00 +15°C° 0 mm 1 mps 748 mmHg 87%
    06:00 +16°C° 0 mm 1 mps 748 mmHg 77%
    07:00 +19°C° 0 mm 1 mps 748 mmHg 67%
    08:00 +22°C° 0 mm 1 mps 748 mmHg 53%
    09:00 +25°C° 0 mm 1 mps 748 mmHg 39%
    10:00 +28°C° 0 mm 1 mps 748 mmHg 25%
    11:00 +30°C° 0 mm 2 mps 748 mmHg 23%
    12:00 +31°C° 0 mm 2 mps 747 mmHg 21%
    13:00 +34°C° 0 mm 2 mps 747 mmHg 20%
    14:00 +33°C° 0 mm 3 mps 746 mmHg 23%
    15:00 +31°C° 0 mm 3 mps 746 mmHg 27%
    16:00 +30°C° 0 mm 3 mps 746 mmHg 31%
    17:00 +28°C° 0 mm 3 mps 746 mmHg 40%
    18:00 +25°C° 0 mm 3 mps 746 mmHg 49%
    19:00 +23°C° 0 mm 2 mps 746 mmHg 58%
    20:00 +20°C° 0 mm 2 mps 746 mmHg 69%
    21:00 +19°C° 0 mm 1 mps 746 mmHg 79%
    22:00 +16°C° 0 mm 1 mps 746 mmHg 90%
    23:00 +15°C° 0 mm 1 mps 746 mmHg 89%

    22 January, Tuesday

    Time Temperature Precipitation Wind Pressure Humidity
    00:00 +15°C° 0 mm 1 mps 745 mmHg 88%
    01:00 +15°C° 0 mm 1 mps 744 mmHg 87%
    02:00 +15°C° 0 mm 1 mps 744 mmHg 82%
    03:00 +15°C° 0 mm 1 mps 744 mmHg 77%
    04:00 +15°C° 0 mm 1 mps 743 mmHg 72%
    05:00 +16°C° 0 mm 1 mps 743 mmHg 64%
    06:00 +19°C° 0 mm 1 mps 743 mmHg 55%
    07:00 +21°C° 0 mm 1 mps 743 mmHg 47%
    08:00 +24°C° 0 mm 2 mps 743 mmHg 40%
    09:00 +27°C° 0 mm 2 mps 743 mmHg 32%
    10:00 +30°C° 0 mm 2 mps 743 mmHg 25%
    11:00 +33°C° 0 mm 3 mps 742 mmHg 23%
    12:00 +35°C° 0 mm 3 mps 742 mmHg 20%
    13:00 +36°C° 0 mm 4 mps 741 mmHg 18%
    14:00 +35°C° 0 mm 3 mps 741 mmHg 21%
    15:00 +34°C° 0 mm 3 mps 741 mmHg 24%
    16:00 +31°C° 0 mm 2 mps 741 mmHg 27%
    17:00 +30°C° 0 mm 2 mps 741 mmHg 31%
    18:00 +28°C° 0 mm 2 mps 741 mmHg 35%
    19:00 +26°C° 0 mm 1 mps 742 mmHg 40%
    20:00 +24°C° 0 mm 1 mps 742 mmHg 49%
    21:00 +21°C° 0 mm 1 mps 742 mmHg 59%
    22:00 +18°C° 0 mm 1 mps 743 mmHg 69%
    23:00 +18°C° 0 mm 1 mps 743 mmHg 75%
    Show more